CZ-2D DEB, 44605

Orbit data source: Space-Track

CZ-2D DEB, 44605 is space debris in SSO originally from a launch on Fri, 11 Nov 2016 UTC launched from the Jiuquan Satellite Launch Center, China (JSC). Debris objects in space refer to the collection of defunct objects orbiting the Earth. Examples of debris include non-operational satellites, rocket bodies, and fragments generated from explosions, collisions, or faulty payload assembly.

Loading next visibility...
Identifier
44605, 2016-068E
Orbit
SSO
Country
Flag of CNCN / PRC
Related business
Manufacturer
Unknown
Mission
Spacecraft
Bus & Motor
Unknown
Mass
Unknown
Launch date (UTC)
2016-11-11 (9 years ago)
Launch vehicle
Unknown
Launch site
Jiuquan Satellite Launch Center, China (JSC)
Object type
Payload
Rocket body
Debris
Shape & HBR
Unknown shape, 0.1 m
Radar Cross Section
Small (<0.1 m²)

Expand to show TLE details & history
Last TLE update: 1 day ago

TLE from 1 day ago
0 CZ-2D DEB
1 44605U 16068E   26121.90035957  .00000339  00000-0  25151-3 0  9992
2 44605  98.4184 189.0852 0228649  23.7829 337.3700 13.89205687474726
Epoch: 2026-05-01T21:36Z
TLE epoch observation values (Epoch: 2026-05-01T21:36:31.066Z)
Latitude
-0.00007°
Longitude
5.12979°
Altitude
780.588 km
Speed
7.542 km/s
True Right ascension
12h 36m 20s
True Declination
0° 00' 00"
Sunlit
Object was in full shadow at epoch
Visualization orbit readout
Latitude
Unknown
Longitude
Unknown
Altitude
Unknown
Speed
Unknown
Apparent Right ascension
Unknown
Apparent Declination
Unknown
Sunlit
N/A
Visualization observer readout
Local Sidereal Time
12:05:47
Azimuth
Unknown
Elevation
Unknown
Doppler factor
Unknown
Orbital elements
Apogee altitude
1,095.668 km
Perigee altitude
761.532 km
Semi-major axis
7,306.737 km
Eccentricity
0.02286
Inclination
98.4184°
RAAN
189.0852°
Arg. of periapsis
23.7829°
True anomaly
336.3346°
Mean anomaly
337.37°
Eccentric anomaly
336.85507°
Mean motion
3.47503 °/min
Orbital period
103.6 mins
BSTAR
0.00025151
Loading maneuver chart data...
Computing Atmospheric mass density...
Loading historical data...
Loading historical data...
Loading historical data...
Loading historical data...
Loading historical data...
Loading historical data...
Loading historical data...

Documentation

Showing up to 5 results
|